Change the Weather History Date:

Thursday, September 26, 2013

  Actual Average Record
Temperature  
Mean Temperature 82 °F -  
Max Temperature 92 °F - - ()
Min Temperature 72 °F - - ()
Cooling Degree Days 17    
Growing Degree Days 32 (Base 50)    
Moisture  
Dew Point 72 °F    
Average Humidity 67    
Maximum Humidity 89    
Minimum Humidity 42    
Precipitation  
Precipitation 0.00 in - - ()
Sea Level Pressure  
Sea Level Pressure 29.78 in    
Wind  
Wind Speed 4 mph ()    
Max Wind Speed 9 mph    
Max Gust Speed -    
Visibility 2.3 miles    
Events      
T = Trace of Precipitation, MM = Missing Value Source: Averaged Metar Reports

Daily Weather History Graph

Daily Weather History Graph

Search for Another Location

Airport or City:

Trip Planner

Search our weather history database for the weather conditions in past years. The results will help you decide how hot, cold, wet, or windy it might be!

Date:

Astronomy

Sep. 26, 2013 Rise Set
Actual Time 6:16 AM IST 6:18 PM IST
Civil Twilight 5:53 AM IST 6:42 PM IST
Nautical Twilight 5:26 AM IST 7:08 PM IST
Astronomical Twilight 4:59 AM IST 7:35 PM IST
Moon 11:20 PM IST (9/26) 12:20 PM IST (9/26)
Length of Visible Light 12h 48m
Length of Day
12h 01m
Waning Gibbous, 58% of the Moon is Illuminated
Sep 26
Waning Gibbous
Sep 27
Last Quarter
Oct 5
New
Oct 12
First Quarter
Oct 19
Full

Hourly Weather History & Observations

Time (IST) Temp. Heat Index Dew Point Humidity Pressure Visibility Wind Dir Wind Speed Gust Speed Precip Events Conditions
12:00 AM 80.6 °F 86.2 °F 75.2 °F 84% 29.77 in 1.9 mi Variable 3.5 mph - N/A   Haze
1:00 AM 78.8 °F - 75.2 °F 89% 29.77 in 1.9 mi Variable 2.3 mph - N/A   Haze
2:00 AM 78.8 °F - 75.2 °F 89% 29.77 in 1.9 mi East 3.5 mph - N/A   Haze
2:30 AM 79 °F - 76 °F 87% 29.69 in 1 mi Calm Calm - -   Mist
4:00 AM 78.8 °F - 73.4 °F 83% 29.77 in 1.2 mi Variable 2.3 mph - N/A   Scattered Clouds
5:00 AM 78.8 °F - 73.4 °F 83% 29.77 in 1.6 mi Calm Calm - N/A   Scattered Clouds
5:30 AM 78 °F - 75 °F 86% 29.72 in 1 mi Calm Calm - -   Mist
6:00 AM 77.0 °F - 73.4 °F 89% 29.80 in 1.6 mi Calm Calm - N/A   Scattered Clouds
8:00 AM 80.6 °F 84.6 °F 71.6 °F 74% 29.86 in 2.5 mi WSW 4.6 mph - N/A   Haze
8:30 AM 81 °F - 71 °F 64% 29.76 in 2 mi SW 6.9 mph - -   Haze
9:00 AM 82.4 °F 87.2 °F 71.6 °F 70% 29.86 in 2.5 mi SSW 5.8 mph - N/A   Haze
9:30 AM 82.4 °F 87.2 °F 71.6 °F 70% 29.86 in 2.5 mi WSW 6.9 mph - N/A   Haze
10:00 AM 84.2 °F 89.6 °F 71.6 °F 66% 29.86 in 2.5 mi SW 6.9 mph - N/A   Haze
11:30 AM 88 °F - 73 °F 53% 29.75 in 2 mi South 6.9 mph - -   Haze
12:00 PM 86.0 °F 91.8 °F 71.6 °F 62% 29.86 in 3.1 mi Variable 3.5 mph - N/A   Haze
1:00 PM 87.8 °F 93.8 °F 71.6 °F 58% 29.83 in 3.1 mi SSW 5.8 mph - N/A   Haze
2:00 PM 89.6 °F 94.7 °F 69.8 °F 52% 29.80 in 3.1 mi Variable 2.3 mph - N/A   Haze
2:30 PM 91 °F - 71 °F 42% 29.68 in 2 mi South 4.6 mph - -   Haze
3:00 PM 91.4 °F 98.4 °F 71.6 °F 52% 29.77 in 3.1 mi Variable 4.6 mph - N/A   Haze
4:00 PM 87.8 °F 92.6 °F 69.8 °F 55% 29.74 in 3.1 mi SSW 9.2 mph - N/A   Haze
5:00 PM 87.8 °F 93.8 °F 71.6 °F 58% 29.77 in 3.1 mi SSW 5.8 mph - N/A   Haze
5:30 PM 88 °F - 72 °F 50% 29.68 in 2 mi South 4.6 mph - -   Haze
6:00 PM 87.8 °F 93.8 °F 71.6 °F 58% 29.77 in 3.1 mi SW 5.8 mph - N/A   Haze
8:00 PM 86.0 °F 91.8 °F 71.6 °F 62% 29.80 in 2.5 mi Calm Calm - N/A   Haze
8:30 PM 85 °F - 72 °F 57% 29.72 in 2 mi SW 5.8 mph - -   Haze
8:30 PM 86.0 °F 91.8 °F 71.6 °F 62% 29.80 in 2.5 mi SW 5.8 mph - N/A   Haze
9:00 PM 84.2 °F 89.6 °F 71.6 °F 66% 29.80 in 2.5 mi WSW 5.8 mph - N/A   Haze
10:00 PM 84.2 °F 89.6 °F 71.6 °F 66% 29.83 in 2.5 mi WSW 6.9 mph - N/A   Haze
11:00 PM 82.4 °F 87.2 °F 71.6 °F 70% 29.83 in 2.5 mi WSW 8.1 mph - N/A   Haze
11:30 PM 82 °F - 71 °F 61% 29.75 in 2 mi West 9.2 mph - -   Haze